When you browse on this site, cookies collect data to enhance your experience and personalize the content and advertising you see.
Visit our Privacy Policy to learn more. By continuing to use the site, you agree to this use of cookies and data.
  • Em Portugal
  • Lista de países
  • Para 7 dias
  • Temperatura da água
  • Mapas de satélite
  • Mapa do tempo
  • Widgets de tempo
  • user-avatar
    Iniciar Sessão

    Previsão horária em Lovech

    Hoje, 21 Janeiro, Segunda-feira

    Tempo Temperatura Precipitação Vento Pressão Humidade
    00:00 +2°C° 0 mm 1 m/s 736 mmHg 95%
    01:00 +2°C° 0 mm 1 m/s 736 mmHg 95%
    02:00 +2°C° 0 mm 1 m/s 736 mmHg 95%
    03:00 +2°C° 0 mm 1 m/s 736 mmHg 94%
    04:00 +2°C° 0 mm 1 m/s 736 mmHg 94%
    05:00 +2°C° 0 mm 1 m/s 736 mmHg 94%
    06:00 +2°C° 0 mm 1 m/s 736 mmHg 93%
    07:00 +2°C° 0 mm 1 m/s 736 mmHg 93%
    08:00 +2°C° 0 mm 1 m/s 737 mmHg 93%
    09:00 +3°C° 0 mm 1 m/s 737 mmHg 89%
    10:00 +4°C° 0 mm 1 m/s 737 mmHg 84%
    11:00 +5°C° 0 mm 1 m/s 737 mmHg 80%
    12:00 +5°C° 0 mm 1 m/s 737 mmHg 78%
    13:00 +6°C° 0 mm 1 m/s 738 mmHg 75%
    14:00 +6°C° 0 mm 1 m/s 738 mmHg 72%
    15:00 +5°C° 0 mm 1 m/s 738 mmHg 75%
    16:00 +5°C° 0 mm 1 m/s 738 mmHg 78%
    17:00 +4°C° 0 mm 1 m/s 738 mmHg 81%
    18:00 +4°C° 0 mm 1 m/s 738 mmHg 83%
    19:00 +3°C° 0 mm 1 m/s 738 mmHg 84%
    20:00 +3°C° 0 mm 1 m/s 738 mmHg 85%
    21:00 +2°C° 0 mm 1 m/s 738 mmHg 87%
    22:00 +2°C° 0 mm 1 m/s 739 mmHg 88%
    23:00 +2°C° 0 mm 1 m/s 739 mmHg 90%

    Amanhã, 22 Janeiro, Terça-feira

    Tempo Temperatura Precipitação Vento Pressão Humidade
    00:00 +2°C° 0 mm 1 m/s 739 mmHg 90%
    01:00 +2°C° 0 mm 1 m/s 739 mmHg 90%
    02:00 +1°C° 0 mm 1 m/s 739 mmHg 90%
    03:00 +1°C° 0 mm 1 m/s 738 mmHg 90%
    04:00 +1°C° 0 mm 1 m/s 738 mmHg 90%
    05:00 +1°C° 0 mm 1 m/s 738 mmHg 90%
    06:00 +1°C° 0 mm 1 m/s 738 mmHg 90%
    07:00 +1°C° 0 mm 1 m/s 737 mmHg 89%
    08:00 +1°C° 0 mm 1 m/s 737 mmHg 89%
    09:00 +2°C° 0 mm 1 m/s 737 mmHg 86%
    10:00 +3°C° 0 mm 1 m/s 737 mmHg 82%
    11:00 +4°C° 0 mm 1 m/s 737 mmHg 79%
    12:00 +5°C° 0 mm 1 m/s 736 mmHg 77%
    13:00 +6°C° 0 mm 1 m/s 735 mmHg 76%
    14:00 +7°C° 0 mm 1 m/s 735 mmHg 74%
    15:00 +6°C° 0 mm 1 m/s 734 mmHg 78%
    16:00 +5°C° 0 mm 1 m/s 733 mmHg 82%
    17:00 +5°C° 0 mm 1 m/s 733 mmHg 85%
    18:00 +4°C° 0 mm 1 m/s 733 mmHg 87%
    19:00 +4°C° 0 mm 1 m/s 732 mmHg 88%
    20:00 +3°C° 0 mm 1 m/s 732 mmHg 90%
    21:00 +4°C° 0 mm 1 m/s 731 mmHg 90%
    22:00 +4°C° 0 mm 1 m/s 731 mmHg 90%
    23:00 +4°C° 0 mm 1 m/s 730 mmHg 90%

    Depois de amanhã, 23 Janeiro, Quarta-feira

    Tempo Temperatura Precipitação Vento Pressão Humidade
    00:00 +4°C° 0.1 mm 1 m/s 730 mmHg 90%
    01:00 +4°C° 0.1 mm 1 m/s 729 mmHg 91%
    02:00 +4°C° 0.1 mm 1 m/s 728 mmHg 92%
    03:00 +4°C° 0.2 mm 1 m/s 728 mmHg 92%
    04:00 +4°C° 0.2 mm 1 m/s 727 mmHg 93%
    05:00 +4°C° 0.2 mm 1 m/s 727 mmHg 93%
    06:00 +4°C° 0 mm 1 m/s 727 mmHg 92%
    07:00 +3°C° 0 mm 1 m/s 727 mmHg 92%
    08:00 +3°C° 0 mm 1 m/s 727 mmHg 91%
    09:00 +5°C° 0 mm 1 m/s 727 mmHg 88%
    10:00 +6°C° 0 mm 1 m/s 727 mmHg 84%
    11:00 +7°C° 0 mm 1 m/s 727 mmHg 81%
    12:00 +8°C° 0 mm 1 m/s 727 mmHg 78%
    13:00 +9°C° 0 mm 1 m/s 727 mmHg 76%
    14:00 +10°C° 0 mm 1 m/s 726 mmHg 73%
    15:00 +9°C° 0 mm 1 m/s 726 mmHg 77%
    16:00 +8°C° 0 mm 1 m/s 726 mmHg 81%
    17:00 +8°C° 0 mm 1 m/s 726 mmHg 85%
    18:00 +7°C° 0 mm 1 m/s 726 mmHg 85%
    19:00 +7°C° 0 mm 1 m/s 727 mmHg 86%
    20:00 +6°C° 0 mm 1 m/s 727 mmHg 87%
    21:00 +6°C° 0.1 mm 1 m/s 727 mmHg 88%
    22:00 +6°C° 0.1 mm 1 m/s 727 mmHg 90%
    23:00 +5°C° 0.1 mm 1 m/s 727 mmHg 91%

    24 Janeiro, Quinta-feira

    Tempo Temperatura Precipitação Vento Pressão Humidade
    00:00 +5°C° 0.7 mm 1 m/s 727 mmHg 93%
    01:00 +5°C° 0.7 mm 1 m/s 726 mmHg 95%
    02:00 +4°C° 0.7 mm 1 m/s 726 mmHg 96%
    03:00 +4°C° 1.2 mm 1 m/s 726 mmHg 96%
    04:00 +4°C° 1.2 mm 1 m/s 725 mmHg 96%
    05:00 +4°C° 1.2 mm 1 m/s 725 mmHg 96%
    06:00 +4°C° 0.8 mm 1 m/s 725 mmHg 96%
    07:00 +3°C° 0.8 mm 1 m/s 725 mmHg 95%
    08:00 +3°C° 0.8 mm 1 m/s 725 mmHg 95%
    09:00 +3°C° 0.4 mm 1 m/s 725 mmHg 94%
    10:00 +3°C° 0.4 mm 1 m/s 725 mmHg 93%
    11:00 +4°C° 0.4 mm 1 m/s 725 mmHg 93%
    12:00 +4°C° 1.8 mm 1 m/s 725 mmHg 94%
    13:00 +4°C° 1.8 mm 1 m/s 725 mmHg 95%
    14:00 +4°C° 1.8 mm 1 m/s 725 mmHg 95%
    15:00 +3°C° 1.1 mm 1 m/s 725 mmHg 96%
    16:00 +3°C° 1.1 mm 1 m/s 724 mmHg 96%
    17:00 +2°C° 1.1 mm 2 m/s 724 mmHg 97%
    18:00 +3°C° 0.3 mm 2 m/s 725 mmHg 97%
    19:00 +3°C° 0.3 mm 2 m/s 725 mmHg 97%
    20:00 +3°C° 0.3 mm 2 m/s 726 mmHg 97%
    21:00 +2°C° 0.9 mm 3 m/s 726 mmHg 96%
    22:00 +2°C° 0.9 mm 3 m/s 726 mmHg 96%
    23:00 +1°C° 0.9 mm 4 m/s 726 mmHg 95%

    25 Janeiro, Sexta-feira

    Tempo Temperatura Precipitação Vento Pressão Humidade
    00:00 +1°C° 0.5 mm 4 m/s 726 mmHg 95%
    01:00 +1°C° 0.5 mm 4 m/s 726 mmHg 95%
    02:00 0°C° 0.5 mm 4 m/s 726 mmHg 94%
    03:00 0°C° 0.5 mm 4 m/s 727 mmHg 94%
    04:00 0°C° 0.5 mm 4 m/s 727 mmHg 95%
    05:00 0°C° 0.5 mm 4 m/s 727 mmHg 95%
    06:00 0°C° 0.1 mm 3 m/s 727 mmHg 95%
    07:00 0°C° 0.1 mm 3 m/s 727 mmHg 95%
    08:00 -1°C° 0.1 mm 3 m/s 728 mmHg 95%
    09:00 -1°C° 0.1 mm 3 m/s 728 mmHg 94%
    10:00 -1°C° 0.1 mm 3 m/s 728 mmHg 94%
    11:00 -1°C° 0.1 mm 2 m/s 728 mmHg 94%
    12:00 -1°C° 0 mm 2 m/s 728 mmHg 94%
    13:00 -1°C° 0 mm 2 m/s 728 mmHg 94%
    14:00 -1°C° 0 mm 2 m/s 728 mmHg 94%
    15:00 -2°C° 1.2 mm 2 m/s 728 mmHg 95%
    16:00 0°C° 1.2 mm 1 m/s 728 mmHg 96%
    17:00 0°C° 1.2 mm 1 m/s 727 mmHg 96%
    18:00 0°C° 0.5 mm 1 m/s 727 mmHg 97%
    19:00 -1°C° 0.5 mm 1 m/s 727 mmHg 97%
    20:00 -3°C° 0.5 mm 2 m/s 727 mmHg 97%
    21:00 -3°C° 0.4 mm 2 m/s 727 mmHg 97%
    22:00 -1°C° 0.4 mm 1 m/s 727 mmHg 97%
    23:00 -1°C° 0.4 mm 1 m/s 727 mmHg 97%

    26 Janeiro, Sábado

    Tempo Temperatura Precipitação Vento Pressão Humidade
    00:00 -1°C° 0.4 mm 1 m/s 727 mmHg 97%
    01:00 -3°C° 0.4 mm 2 m/s 727 mmHg 97%
    02:00 -3°C° 0.4 mm 2 m/s 727 mmHg 97%
    03:00 -3°C° 0.7 mm 2 m/s 727 mmHg 97%
    04:00 -4°C° 0.7 mm 2 m/s 727 mmHg 97%
    05:00 -4°C° 0.7 mm 2 m/s 727 mmHg 97%
    06:00 -4°C° 0.9 mm 2 m/s 728 mmHg 97%
    07:00 -4°C° 0.9 mm 2 m/s 728 mmHg 97%
    08:00 -4°C° 0.9 mm 2 m/s 729 mmHg 97%
    09:00 -4°C° 0.8 mm 2 m/s 729 mmHg 97%
    10:00 -2°C° 0.8 mm 1 m/s 730 mmHg 96%
    11:00 -2°C° 0.8 mm 1 m/s 730 mmHg 96%
    12:00 -1°C° 0.6 mm 1 m/s 730 mmHg 96%
    13:00 -3°C° 0.6 mm 2 m/s 730 mmHg 96%
    14:00 -3°C° 0.6 mm 2 m/s 730 mmHg 95%
    15:00 -1°C° 0.3 mm 1 m/s 731 mmHg 96%
    16:00 -1°C° 0.3 mm 1 m/s 731 mmHg 96%
    17:00 -1°C° 0.3 mm 1 m/s 731 mmHg 97%
    18:00 -1°C° 0.1 mm 1 m/s 732 mmHg 96%
    19:00 -3°C° 0.1 mm 0 m/s 732 mmHg 96%
    20:00 -3°C° 0.1 mm 0 m/s 732 mmHg 96%
    21:00 -3°C° 0 mm 0 m/s 733 mmHg 96%
    22:00 -3°C° 0 mm 0 m/s 733 mmHg 97%
    23:00 -3°C° 0 mm 0 m/s 733 mmHg 97%
    Mostrar mais